Regional Weather Roundup
Issued by NWS

Home | Current Version | Previous Version | Text Only | Print | Product List | Glossary Off
Versions: 1 2 3 4 5 6 7 8 9 10 11 12 13 14 15 16 17 18 19 20 21 22 23 24 25 26 27 28 29 30 31 32 33 34 35 36 37 38 39 40 41 42 43 44 45 46 47 48 49 50

000
ASUS45 KTFX 011219
RWRMT
MONTANA HOURLY WEATHER ROUNDUP
NATIONAL WEATHER SERVICE GREAT FALLS MT
619 AM MDT MON SEP 1 2014

NOTE: "FAIR" INDICATES FEW OR NO CLOUDS BELOW 12000 FEET WITH NO
SIGNIFICANT WEATHER AND/OR OBSTRUCTIONS TO VISIBILITY.

* THESE STATIONS ARE NOT UNDER NWS QUALITY CONTROL. THEY DO NOT
   REPORT WEATHER SUCH AS PRECIPITATION OR FOG.

MTZ001>007-043-011300-
WEST OF THE DIVIDE
CITY           SKY/WX    TMP DP  RH WIND       PRES   REMARKS
KALISPELL      CLOUDY    50  48  93 CALM      30.00S
MISSOULA       PTCLDY    41  37  86 CALM      30.06R
BUTTE          MOCLDY    39  36  89 SE6       30.08S WCI  35
MULLAN PASS    MOCLDY    41  36  82 SW6       30.07S
* LINCOLN      N/A       37  35  92 NE1        N/A
* LOOKOUT PASS N/A       42  39  89 N/A        N/A
* POLSON       N/A       50  43  77 SE1        N/A
* RONAN APT    MOCLDY    52  45  77 N/A        N/A
* SEELEY LAKE  N/A       35  34  96 N/A        N/A
* THOMP F APT  MOCLDY    43  39  86 N/A        N/A
$$

MTZ008-052>055-011300-
SOUTHWEST MONTANA
CITY           SKY/WX    TMP DP  RH WIND       PRES   REMARKS
BOZEMAN        CLOUDY    50  46  86 CALM      30.04R
DILLON         PTCLDY    45  37  74 S6        30.06R
W YELLOWSTONE  MOCLDY    36  36 100 CALM      30.10R
* THREE FORKS  PTCLDY    46  28  50 N/A        N/A
* BOULDER HILL N/A       48  30  50 W1         N/A
* MONIDA PASS  N/A       42  38  86 W11        N/A
* RAYNOLDS PAS N/A       40 -12  10 N2         N/A
* WHITEHALL    N/A       45  41  86 N2         N/A
* WISE RIVER   N/A       36  33  89 SE3        N/A
$$

MTZ009>010-012-014-046-048-049-054-011300-
EAST SLOPES AND CENTRAL MONTANA
CITY           SKY/WX    TMP DP  RH WIND       PRES   REMARKS
CUT BANK       PTCLDY    48  39  71 W12       29.93S
GREAT FALLS    CLOUDY    50  39  66 SW9       29.95R
HELENA         MOCLDY    54  37  53 W7        30.00R
MALMSTROM AFB  MOCLDY    52  41  66 SW7       29.97R
* CONRAD       PTCLDY    54  43  67 W10G17     N/A
* EAST GLACIER N/A       47  39  74 W10G15     N/A
* MONARCH      N/A       39  34  82 S9         N/A   WCI  33
* PENDROY      N/A       49  36  61 NW14       N/A
* ROGERS PASS  N/A       44  36  74 W3G11      N/A
* SAINT MARY   N/A       49  40  71 S5         N/A
* SWEET GRASS  N/A       48  40  74 W12        N/A
* WHITE SULPH  N/A       45  35  68 E2G7       N/A
$$

MTZ011-013-016-021-035-040-045-047-050-051-011300-
NORTH CENTRAL MONTANA
CITY           SKY/WX    TMP DP  RH WIND       PRES   REMARKS
HAVRE          CLOUDY    52  43  72 SW10      29.89S
LEWISTOWN      PTCLDY    48  39  71 VRB3      29.96R
* CHINOOK      PTCLDY    48  45  89 SW3       29.89R
* FORT BENTON  PTCLDY    50  39  66 SW5       29.94R
* CHESTER      N/A       49  40  71 W3         N/A
* DENTON       N/A       47  41  80 SW6        N/A
* GEYSER       N/A       45  38  77 NW6        N/A
* JUDITH GAP   N/A       41  37  86 SE4        N/A
* LOMA         N/A       53  41  64 SW8        N/A
$$

MTZ017>020-022>027-061-062-011300-
NORTHEAST MONTANA
CITY           SKY/WX    TMP DP  RH WIND       PRES   REMARKS
GLASGOW        PTCLDY    48  46  93 NW6       29.85R
GLENDIVE       CLOUDY    50  48  93 SW5       29.86R
JORDAN         PTCLDY    48  46  93 W6        29.87S
SIDNEY         PTCLDY    48  46  93 NW7       29.85R
WOLF POINT     CLEAR     46  45  96 SW5       29.85R
* BEAVER HILL  N/A       50  46  86 SW4        N/A
* CIRCLE       N/A       49  46  89 N/A        N/A
* LINDSAY DVD  N/A       52  48  86 NW9        N/A
* NAVAJO       N/A       50  43  77 NW12       N/A
$$

MTZ028>042-056>058-011300-
SOUTHCENTRAL AND SOUTHEAST MONTANA
CITY           SKY/WX    TMP DP  RH WIND       PRES   REMARKS
BAKER          CLOUDY    52  46  80 W8        29.87R
BILLINGS       CLOUDY    55  46  72 SW12      29.96S
LIVINGSTON     CLOUDY    50  45  83 W6        30.01S
MILES CITY     PTCLDY    50  45  83 W8        29.88R
* LAUREL APT   CLOUDY    52  45  77 N/A        N/A
* ROUNDUP APT  PTCLDY    46  41  83 S10        N/A
* ALZADA       N/A       49  45  86 W4         N/A
* HYSHAM       N/A       50  45  83 W3         N/A
* LAME DEER    N/A       52  43  72 W8         N/A
* REED POINT   N/A       50  49  96 SE2        N/A
* ROSCOE HILL  N/A       46  37  71 NW1        N/A
$$

REGIONAL REPORTS...DAKOTAS
CITY           SKY/WX    TMP DP  RH WIND       PRES   REMARKS
WILLISTON      CLEAR     48  45  89 CALM      29.81S
DICKINSON      CLEAR     48  45  89 W9        29.80R
BEACH          N/A       50  48  93 W7        29.85R
CROSBY         CLEAR     48  48 100 CALM      29.80R
TIOGA          CLEAR     48  48 100 NW6       29.83R
WATFORD CITY   CLEAR     45  45 100 CALM      29.79S
BISMARCK       CLEAR     50  50 100 SW6       29.78S
GRAND FORKS    MOCLDY    52  52 100 W6        29.68R
FARGO          PTCLDY    52  50  93 SW6       29.70R
BUFFALO SD     CLEAR     48  45  89 W9        29.81S
RAPID CITY     PTCLDY    48  45  89 W5        29.91R
$$

REGIONAL REPORTS...WYOMING/IDAHO/WASHINGTON
CITY           SKY/WX    TMP DP  RH WIND       PRES   REMARKS
GILLETTE       CLOUDY    52  45  77 CALM      29.97R
SHERIDAN       CLOUDY    52  43  72 SW6       29.96R
CODY           MOCLDY    54  39  57 W3        30.01R
YELLOWSTONE LA PTCLDY    37  36  96 NW5       30.14S WCI  33
SALMON         PTCLDY    46  43  89 CALM      30.07R
MULLAN PASS    MOCLDY    41  36  82 SW6       30.07S
SAND POINT     PTCLDY    46  46 100 CALM      30.00R
SPOKANE        FAIR      48  39  71 S8        30.00S
$$

REGIONAL REPORTS...ALBERTA
CITY           SKY/WX    TMP DP  RH WIND       PRES   REMARKS
CALGARY        PTCLDY    43  34  71 S3        29.88S
LETHBRIDGE     FAIR      45  39  80 SW7       29.90R
MEDICINE HAT   MOCLDY    50  46  86 W10       29.87R
EDMONTON       PTCLDY    37  34  89 SW5       29.81S WCI  33
WATERTON GATE  N/A       50  39  66 SW12G17    N/A
CARDSTON       N/A       48  39  71 W7         N/A
$$

REGIONAL REPORTS...SASKATCHEWAN
CITY           SKY/WX    TMP DP  RH WIND       PRES   REMARKS
SWIFT CURRENT  PTCLDY    46  43  89 W9        29.83S
REGINA         N/A       45  43  93 NW3       29.78R
VAL MARIE      N/A       41  39  93 NE1        N/A
ASSINIBOIA     N/A       46  43  89 W7         N/A
CORONACH       N/A       41  39  93 W3         N/A

$$



USA.gov is the U.S. government's official web portal to all federal, state and local government web resources and services.